Erie, PA

2:52 PM EDT on August 18, 2017 (GMT -0400)
Erie International

Weather History for KERI - November, 2011

Change the Weather History Date:

Tuesday, November 22, 2011

  Actual Average Record
Temperature  
Mean Temperature 37 °F 41 °F  
Max Temperature 43 °F 47 °F 72 °F (1934)
Min Temperature 31 °F 35 °F 6 °F (1880)
Degree Days  
Heating Degree Days 28 24  
Month to date heating degree days 363 446  
Since 1 July heating degree days 807 949  
Cooling Degree Days 0 0  
Month to date cooling degree days 0 0  
Year to date cooling degree days 830 638  
Moisture  
Dew Point 35 °F    
Average Humidity 85    
Maximum Humidity 100    
Minimum Humidity 70    
Precipitation  
Precipitation 1.02 in 0.13 in 2.62 in (1956)
Month to date precipitation 2.68 2.88  
Year to date precipitation 50.50 37.37  
Snow  
Snow 0.00 in 0.40 in - ()
Month to date snowfall 0.8 4.9  
Since 1 July snowfall 0.8 5.1  
Since 1 September snowfall 0.8 5.1  
Snow Depth 0.00 in    
Sea Level Pressure  
Sea Level Pressure 30.03 in    
Wind  
Wind Speed 10 mph (ENE)    
Max Wind Speed 18 mph    
Max Gust Speed 24 mph    
Visibility 7 miles    
Events Rain    
T = Trace of Precipitation, MM = Missing Value Source: NWS Daily Summary

Daily Weather History Graph

Daily Weather History Graph

Search for Another Location

Airport or City:

Trip Planner

Search our weather history database for the weather conditions in past years. The results will help you decide how hot, cold, wet, or windy it might be!

Date:

Astronomy

Nov. 22, 2011 Rise Set
Actual Time 7:18 AM EST 4:54 PM EST
Civil Twilight 6:48 AM EST 5:24 PM EST
Nautical Twilight 6:14 AM EST 5:59 PM EST
Astronomical Twilight 5:40 AM EST 6:32 PM EST
Moon 4:05 AM EST (11/22) 2:54 PM EST (11/22)
Length of Visible Light 10h 36m
Length of Day
9h 35m
Waning Crescent, 9% of the Moon is Illuminated
Nov 22
Waning Crescent
Nov 25
New
Dec 2
First Quarter
Dec 10
Full
Dec 17
Last Quarter

Hourly Weather History & Observations

Time (EST) Temp. Windchill Dew Point Humidity Pressure Visibility Wind Dir Wind Speed Gust Speed Precip Events Conditions
12:51 AM 35.1 °F 32.2 °F 30.9 °F 85% 30.30 in 10.0 mi East 3.5 mph - N/A   Clear
1:51 AM 32.0 °F - 30.0 °F 92% 30.30 in 7.0 mi Calm Calm - N/A   Clear
2:51 AM 30.9 °F - 28.0 °F 89% 30.32 in 9.0 mi Calm Calm - N/A   Clear
3:51 AM 32.0 °F 25.6 °F 27.0 °F 82% 30.30 in 10.0 mi ENE 6.9 mph - N/A   Clear
4:51 AM 35.1 °F 27.4 °F 30.9 °F 85% 30.29 in 10.0 mi ENE 10.4 mph - N/A   Clear
5:51 AM 35.1 °F 28.6 °F 30.0 °F 82% 30.29 in 10.0 mi ENE 8.1 mph - N/A   Clear
6:51 AM 33.1 °F 30.0 °F 28.9 °F 85% 30.28 in 10.0 mi East 3.5 mph - N/A   Clear
7:51 AM 33.1 °F 26.9 °F 28.9 °F 85% 30.28 in 10.0 mi East 6.9 mph - N/A   Clear
8:51 AM 37.0 °F 31.0 °F 30.9 °F 79% 30.27 in 10.0 mi ENE 8.1 mph - N/A   Clear
9:51 AM 39.0 °F 31.8 °F 32.0 °F 76% 30.24 in 10.0 mi ENE 11.5 mph - N/A   Clear
10:51 AM 41.0 °F 34.7 °F 32.0 °F 70% 30.19 in 10.0 mi NE 10.4 mph - N/A   Clear
11:51 AM 41.0 °F 35.8 °F 33.1 °F 73% 30.14 in 10.0 mi ENE 8.1 mph - N/A   Clear
12:51 PM 41.0 °F 33.1 °F 34.0 °F 76% 30.10 in 10.0 mi ENE 15.0 mph - N/A   Mostly Cloudy
2:01 PM 42.8 °F 35.8 °F 33.8 °F 70% 30.04 in 10.0 mi NE 13.8 mph - N/A   Overcast
2:51 PM 41.0 °F 33.5 °F 35.1 °F 79% 30.01 in 10.0 mi ENE 13.8 mph - 0.00 in Rain Light Rain
3:51 PM 41.0 °F 33.1 °F 36.0 °F 82% 29.99 in 5.0 mi ENE 15.0 mph - 0.01 in Rain Light Rain
4:07 PM 39.2 °F 31.6 °F 37.4 °F 93% 29.96 in 2.5 mi ENE 12.7 mph - 0.04 in Rain Rain
4:40 PM 39.2 °F 30.8 °F 37.4 °F 93% 29.93 in 3.0 mi ENE 15.0 mph - 0.14 in Rain Rain
4:51 PM 39.0 °F 30.6 °F 37.0 °F 93% 29.94 in 4.0 mi ENE 15.0 mph - 0.16 in Rain Rain
5:51 PM 39.0 °F 32.3 °F 37.0 °F 93% 29.88 in 5.0 mi NE 10.4 mph - 0.11 in Rain Rain
6:27 PM 39.2 °F 34.2 °F 37.4 °F 93% 29.86 in 5.0 mi NE 6.9 mph - 0.03 in Rain Light Rain
6:51 PM 41.0 °F 34.7 °F 39.0 °F 93% 29.86 in 4.0 mi ENE 10.4 mph - 0.09 in Rain Light Rain
7:07 PM 42.8 °F 37.5 °F 39.2 °F 87% 29.83 in 5.0 mi NE 9.2 mph - 0.02 in Rain Light Rain
7:51 PM 43.0 °F 36.0 °F 41.0 °F 93% 29.81 in 3.0 mi NE 13.8 mph - 0.13 in Rain Rain
8:02 PM 42.8 °F 35.1 °F 41.0 °F 93% 29.79 in 2.5 mi NE 16.1 mph - 0.05 in Rain Rain
8:29 PM 42.8 °F 34.8 °F 42.8 °F 100% 29.77 in 3.0 mi NE 17.3 mph - N/A Rain Heavy Rain
8:51 PM 43.0 °F 35.4 °F 42.1 °F 97% 29.76 in 4.0 mi ENE 16.1 mph - 0.18 in Rain Rain
9:51 PM 43.0 °F 36.4 °F 41.0 °F 93% 29.72 in 9.0 mi ENE 12.7 mph - 0.09 in Rain Light Rain
10:51 PM 42.1 °F 34.9 °F 41.0 °F 96% 29.67 in 5.0 mi ENE 13.8 mph - 0.04 in Rain Light Rain
11:51 PM 42.1 °F 34.5 °F 41.0 °F 96% 29.65 in 3.0 mi NE 15.0 mph - 0.19 in Rain Heavy Rain